Northfield, Minnesota, United States (55057)
Lat: 44.46N, Lon: 93.16W
Wx Zone: MNZ077
Local Info
Past Weather Observations for Today

NOTE: This archive is for the closest National Weather Service station to Northfield. Information may differ from the station used for current weather conditions.

Click here for Long-term Archive

Time Weather Temperature Dewpoint Humidity Pressure Winds Precip Visibility
11:14
Overcast
28°F / -2°C 25°F / -4°C 86% 30.18 in
(1022 mb)
NE 6.9 mph
(NE 11 kph)
- 10SM
10:54
Overcast
28°F / -2°C 25°F / -4°C 86% 30.18 in
(1022 mb)
NE 8.1 mph
(NE 13 kph)
- 7SM
10:34
Overcast
28°F / -2°C 25°F / -4°C 86% 30.18 in
(1022 mb)
NE 5.8 mph
(NE 9 kph)
- 7SM
10:14
Overcast
28°F / -2°C 25°F / -4°C 86% 30.18 in
(1022 mb)
NE 4.6 mph
(NE 7 kph)
- 7SM
09:54
Overcast
28°F / -2°C 25°F / -4°C 86% 30.18 in
(1022 mb)
N 3.5 mph
(N 6 kph)
- 7SM
09:34
Overcast
28°F / -2°C 25°F / -4°C 86% 30.18 in
(1022 mb)
Calm - 7SM
09:14
Overcast
28°F / -2°C 25°F / -4°C 86% 30.18 in
(1022 mb)
Calm - 7SM
08:54
Overcast
27°F / -3°C 23°F / -5°C 86% 30.18 in
(1022 mb)
Calm - 7SM
08:34
Overcast
27°F / -3°C 23°F / -5°C 86% 30.15 in
(1021 mb)
Calm - 7SM
08:14
Overcast
27°F / -3°C 23°F / -5°C 86% 30.15 in
(1021 mb)
Calm - 7SM
07:54
Overcast
27°F / -3°C 23°F / -5°C 86% 30.15 in
(1021 mb)
Calm - 7SM
07:34
Overcast
27°F / -3°C 23°F / -5°C 86% 30.15 in
(1021 mb)
Calm - 7SM
07:14
Overcast
27°F / -3°C 23°F / -5°C 86% 30.15 in
(1021 mb)
Calm - 10SM
06:54
Overcast
27°F / -3°C 23°F / -5°C 86% 30.12 in
(1020 mb)
Calm - 10SM
06:34
Overcast
25°F / -4°C 23°F / -5°C 93% 30.12 in
(1020 mb)
Calm - 10SM
06:14
Overcast
25°F / -4°C 23°F / -5°C 93% 30.12 in
(1020 mb)
Calm - 10SM
05:54
Overcast
25°F / -4°C 21°F / -6°C 86% 30.12 in
(1020 mb)
Calm - 10SM
05:34
Overcast
25°F / -4°C 21°F / -6°C 86% 30.12 in
(1020 mb)
Calm - 10SM
05:14
Overcast
23°F / -5°C 21°F / -6°C 93% 30.12 in
(1020 mb)
Calm - 10SM
04:54
Partly Cloudy
23°F / -5°C 19°F / -7°C 86% 30.12 in
(1020 mb)
Calm - 10SM
04:34
Clear
21°F / -6°C 18°F / -8°C 86% 30.12 in
(1020 mb)
SW 5.8 mph
(SW 9 kph)
- 10SM
04:15
Clear
23°F / -5°C 21°F / -6°C 93% 30.12 in
(1020 mb)
SW 3.5 mph
(SW 6 kph)
- 10SM
03:54
Clear
25°F / -4°C 21°F / -6°C 86% 30.12 in
(1020 mb)
SW 4.6 mph
(SW 7 kph)
- 10SM
03:34
Clear
25°F / -4°C 21°F / -6°C 86% 30.09 in
(1019 mb)
SSE 4.6 mph
(SSE 7 kph)
- 10SM
03:15
Clear
25°F / -4°C 21°F / -6°C 86% 30.12 in
(1020 mb)
SSE 4.6 mph
(SSE 7 kph)
- 10SM
02:54
Clear
25°F / -4°C 21°F / -6°C 86% 30.12 in
(1020 mb)
SSE 4.6 mph
(SSE 7 kph)
- 10SM
02:34
Clear
27°F / -3°C 21°F / -6°C 80% 30.12 in
(1020 mb)
SSE 3.5 mph
(SSE 6 kph)
- 10SM
02:15
Clear
25°F / -4°C 21°F / -6°C 86% 30.12 in
(1020 mb)
SSE 3.5 mph
(SSE 6 kph)
- 10SM
01:54
Clear
27°F / -3°C 21°F / -6°C 80% 30.12 in
(1020 mb)
SSE 4.6 mph
(SSE 7 kph)
- 10SM
01:34
Clear
27°F / -3°C 21°F / -6°C 80% 30.12 in
(1020 mb)
SW 4.6 mph
(SW 7 kph)
- 10SM
01:14
Clear
27°F / -3°C 21°F / -6°C 80% 30.12 in
(1020 mb)
SW 4.6 mph
(SW 7 kph)
- 10SM
00:54
Clear
27°F / -3°C 21°F / -6°C 80% 30.12 in
(1020 mb)
SW 5.8 mph
(SW 9 kph)
- 10SM
00:34
Clear
27°F / -3°C 21°F / -6°C 80% 30.12 in
(1020 mb)
SW 9.2 mph
(SW 15 kph)
- 10SM
00:14
Clear
28°F / -2°C 21°F / -6°C 74% 30.12 in
(1020 mb)
SW 12.7 mph
(SW 20 kph)
- 10SM
Time Weather Temperature Dewpoint Humidity Pressure Winds Precip Visibility


Weather for websites

WeatherForYou.com, LLC is not responsible for any damages or problems caused by this service. Current weather conditions are obtained from the closest station including government and personal stations which may have varying degrees of accuracy. Weather forecasts are derived from the NOAA NDFD. Like all things, this site belongs to Jesus Christ... He just trusts me to maintain it. If you have any questions or comments email webmaster@weatherforyou.com

Copyright © 2015, WeatherForYou.com LLC. All rights reserved.